contact:dominique.lefevre@mio.osupytheas.fr, maurice.libes@osupytheas.fr, didier.mallarino@osupytheas.fr
Project:EMSO http://www.emso-fr.org/EMSO-France
Depth: 2436.0 m
Title:EMSO Ligure Ouest : Data MII capteur MICROCAT
DateTime_Computer,Latitude,Longitude,Temperature,Conductivity,Pressure,DateTime_Instrument
DateTime_Computer,Latitude,Longitude,degC,S m-1,dbar,DateTime_Instrument
2021-08-19T00:01:37Z,42.805,6.029,13.3024,4.60044,2470.357,2021-8-19T02:02:56Z
2021-08-19T00:04:40Z,42.805,6.029,13.3012,4.60044,2470.334,2021-8-19T02:05:59Z
2021-08-19T00:07:43Z,42.805,6.029,13.3011,4.60031,2470.357,2021-8-19T02:09:02Z
2021-08-19T00:10:46Z,42.805,6.029,13.3009,4.60034,2470.366,2021-8-19T02:12:05Z
2021-08-19T00:13:49Z,42.805,6.029,13.3004,4.60028,2470.334,2021-8-19T02:15:08Z
2021-08-19T00:16:53Z,42.805,6.029,13.3006,4.60024,2470.343,2021-8-19T02:18:11Z
2021-08-19T00:19:56Z,42.805,6.029,13.3001,4.60033,2470.366,2021-8-19T02:21:14Z
2021-08-19T00:22:59Z,42.805,6.029,13.3006,4.60036,2470.297,2021-8-19T02:24:18Z
2021-08-19T00:26:02Z,42.805,6.029,13.3006,4.60039,2470.366,2021-8-19T02:27:21Z
2021-08-19T00:29:05Z,42.805,6.029,13.3008,4.60044,2470.343,2021-8-19T02:30:24Z
2021-08-19T00:32:08Z,42.805,6.029,13.3022,4.60031,2470.38,2021-8-19T02:33:27Z
2021-08-19T00:35:11Z,42.805,6.029,13.3026,4.60046,2470.357,2021-8-19T02:36:30Z
2021-08-19T00:38:14Z,42.805,6.029,13.3003,4.60025,2470.357,2021-8-19T02:39:33Z
2021-08-19T00:41:18Z,42.805,6.029,13.3009,4.60029,2470.343,2021-8-19T02:42:36Z
2021-08-19T00:44:21Z,42.805,6.029,13.2998,4.60019,2470.343,2021-8-19T02:45:39Z
2021-08-19T00:47:24Z,42.805,6.029,13.3002,4.60021,2470.343,2021-8-19T02:48:43Z
2021-08-19T00:50:27Z,42.805,6.029,13.3020,4.60023,2470.366,2021-8-19T02:51:46Z
2021-08-19T00:53:30Z,42.805,6.029,13.3009,4.60039,2470.357,2021-8-19T02:54:49Z
2021-08-19T00:56:33Z,42.805,6.029,13.3009,4.60047,2470.366,2021-8-19T02:57:52Z
2021-08-19T00:59:36Z,42.805,6.029,13.3006,4.60031,2470.357,2021-8-19T03:00:55Z
2021-08-19T01:02:39Z,42.805,6.029,13.3011,4.60046,2470.343,2021-8-19T03:03:58Z
2021-08-19T01:05:43Z,42.805,6.029,13.3018,4.60046,2470.366,2021-8-19T03:07:01Z
2021-08-19T01:08:46Z,42.805,6.029,13.3006,4.60054,2470.343,2021-8-19T03:10:05Z
2021-08-19T01:11:49Z,42.805,6.029,13.3007,4.60033,2470.357,2021-8-19T03:13:08Z
2021-08-19T01:14:52Z,42.805,6.029,13.3005,4.60019,2470.366,2021-8-19T03:16:11Z
2021-08-19T01:17:55Z,42.805,6.029,13.3011,4.60039,2470.357,2021-8-19T03:19:14Z
2021-08-19T01:20:58Z,42.805,6.029,13.3011,4.60047,2470.38,2021-8-19T03:22:17Z
2021-08-19T01:24:01Z,42.805,6.029,13.3010,4.60049,2470.38,2021-8-19T03:25:20Z
2021-08-19T01:27:04Z,42.805,6.029,13.3017,4.60048,2470.343,2021-8-19T03:28:23Z
2021-08-19T01:30:08Z,42.805,6.029,13.3004,4.60039,2470.343,2021-8-19T03:31:26Z
2021-08-19T01:33:11Z,42.805,6.029,13.2999,4.60032,2470.366,2021-8-19T03:34:29Z
2021-08-19T01:36:14Z,42.805,6.029,13.3014,4.60045,2470.357,2021-8-19T03:37:33Z
2021-08-19T01:39:17Z,42.805,6.029,13.3021,4.60059,2470.343,2021-8-19T03:40:36Z
2021-08-19T01:42:20Z,42.805,6.029,13.3016,4.60046,2470.32,2021-8-19T03:43:39Z
2021-08-19T01:45:23Z,42.805,6.029,13.3014,4.60051,2470.32,2021-8-19T03:46:42Z
2021-08-19T01:48:26Z,42.805,6.029,13.3011,4.60046,2470.357,2021-8-19T03:49:45Z
2021-08-19T01:51:29Z,42.805,6.029,13.3017,4.60051,2470.38,2021-8-19T03:52:48Z
2021-08-19T01:54:33Z,42.805,6.029,13.3018,4.60056,2470.38,2021-8-19T03:55:51Z
2021-08-19T01:57:36Z,42.805,6.029,13.3011,4.60051,2470.366,2021-8-19T03:58:55Z
2021-08-19T02:00:39Z,42.805,6.029,13.3003,4.60032,2470.357,2021-8-19T04:01:58Z
2021-08-19T02:03:42Z,42.805,6.029,13.2999,4.60022,2470.38,2021-8-19T04:05:01Z
2021-08-19T02:06:45Z,42.805,6.029,13.3011,4.60046,2470.39,2021-8-19T04:08:04Z
2021-08-19T02:09:48Z,42.805,6.029,13.3012,4.60035,2470.366,2021-8-19T04:11:07Z
2021-08-19T02:12:51Z,42.805,6.029,13.3011,4.60056,2470.404,2021-8-19T04:14:10Z
2021-08-19T02:15:54Z,42.805,6.029,13.3014,4.60056,2470.38,2021-8-19T04:17:13Z
2021-08-19T02:18:58Z,42.805,6.029,13.3010,4.60055,2470.38,2021-8-19T04:20:16Z
2021-08-19T02:22:01Z,42.805,6.029,13.3024,4.60058,2470.357,2021-8-19T04:23:19Z
2021-08-19T02:25:04Z,42.805,6.029,13.3019,4.60041,2470.366,2021-8-19T04:26:23Z
2021-08-19T02:28:07Z,42.805,6.029,13.3006,4.60073,2470.38,2021-8-19T04:29:26Z
2021-08-19T02:31:10Z,42.805,6.029,13.3017,4.60051,2470.38,2021-8-19T04:32:29Z
2021-08-19T02:34:13Z,42.805,6.029,13.3020,4.60041,2470.343,2021-8-19T04:35:32Z
2021-08-19T02:37:16Z,42.805,6.029,13.3014,4.60062,2470.343,2021-8-19T04:38:35Z
2021-08-19T02:40:19Z,42.805,6.029,13.3021,4.60046,2470.366,2021-8-19T04:41:38Z
2021-08-19T02:43:23Z,42.805,6.029,13.3014,4.60039,2470.357,2021-8-19T04:44:41Z
2021-08-19T02:46:26Z,42.805,6.029,13.3017,4.60036,2470.404,2021-8-19T04:47:44Z
2021-08-19T02:49:29Z,42.805,6.029,13.3009,4.60048,2470.343,2021-8-19T04:50:48Z
2021-08-19T02:52:32Z,42.805,6.029,13.3019,4.60053,2470.366,2021-8-19T04:53:51Z
2021-08-19T02:55:35Z,42.805,6.029,13.3014,4.60033,2470.38,2021-8-19T04:56:54Z
2021-08-19T02:58:38Z,42.805,6.029,13.3021,4.60049,2470.38,2021-8-19T04:59:57Z
2021-08-19T03:01:41Z,42.805,6.029,13.3007,4.60044,2470.366,2021-8-19T05:03:00Z
2021-08-19T03:04:44Z,42.805,6.029,13.3015,4.60058,2470.39,2021-8-19T05:06:03Z
2021-08-19T03:07:48Z,42.805,6.029,13.3015,4.60053,2470.38,2021-8-19T05:09:06Z
2021-08-19T03:10:51Z,42.805,6.029,13.3014,4.60035,2470.413,2021-8-19T05:12:09Z
2021-08-19T03:13:54Z,42.805,6.029,13.3014,4.60058,2470.376,2021-8-19T05:15:13Z
2021-08-19T03:16:57Z,42.805,6.029,13.3019,4.60057,2470.366,2021-8-19T05:18:16Z
2021-08-19T03:20:00Z,42.805,6.029,13.3017,4.60047,2470.366,2021-8-19T05:21:19Z
2021-08-19T03:23:03Z,42.805,6.029,13.3011,4.60055,2470.366,2021-8-19T05:24:22Z
2021-08-19T03:26:06Z,42.805,6.029,13.3018,4.60045,2470.366,2021-8-19T05:27:25Z
2021-08-19T03:29:09Z,42.805,6.029,13.3004,4.60042,2470.39,2021-8-19T05:30:28Z
2021-08-19T03:32:13Z,42.805,6.029,13.3019,4.60073,2470.404,2021-8-19T05:33:31Z
2021-08-19T03:35:16Z,42.805,6.029,13.3016,4.60045,2470.404,2021-8-19T05:36:34Z
2021-08-19T03:38:19Z,42.805,6.029,13.3012,4.60035,2470.39,2021-8-19T05:39:38Z
2021-08-19T03:41:22Z,42.805,6.029,13.3024,4.60052,2470.343,2021-8-19T05:42:41Z
2021-08-19T03:44:25Z,42.805,6.029,13.3026,4.60057,2470.413,2021-8-19T05:45:44Z
2021-08-19T03:47:28Z,42.805,6.029,13.3017,4.60073,2470.39,2021-8-19T05:48:47Z
2021-08-19T03:50:31Z,42.805,6.029,13.3010,4.60070,2470.39,2021-8-19T05:51:50Z
2021-08-19T03:53:34Z,42.805,6.029,13.3021,4.60067,2470.413,2021-8-19T05:54:53Z
2021-08-19T03:56:38Z,42.805,6.029,13.3005,4.60031,2470.38,2021-8-19T05:57:56Z
2021-08-19T03:59:41Z,42.805,6.029,13.3012,4.60043,2470.39,2021-8-19T06:00:59Z
2021-08-19T04:02:44Z,42.805,6.029,13.3003,4.60045,2470.38,2021-8-19T06:04:03Z
2021-08-19T04:05:47Z,42.805,6.029,13.3021,4.60052,2470.39,2021-8-19T06:07:06Z
2021-08-19T04:08:50Z,42.805,6.029,13.3006,4.60052,2470.39,2021-8-19T06:10:09Z
2021-08-19T04:11:53Z,42.805,6.029,13.3011,4.60055,2470.39,2021-8-19T06:13:12Z
2021-08-19T04:14:56Z,42.805,6.029,13.3015,4.60036,2470.39,2021-8-19T06:16:15Z
2021-08-19T04:17:59Z,42.805,6.029,13.3018,4.60048,2470.366,2021-8-19T06:19:18Z
2021-08-19T04:21:02Z,42.805,6.029,13.3015,4.60057,2470.38,2021-8-19T06:22:21Z
2021-08-19T04:24:06Z,42.805,6.029,13.3004,4.60041,2470.427,2021-8-19T06:25:24Z
2021-08-19T04:27:09Z,42.805,6.029,13.3013,4.60054,2470.427,2021-8-19T06:28:28Z
2021-08-19T04:30:12Z,42.805,6.029,13.3030,4.60064,2470.404,2021-8-19T06:31:31Z
2021-08-19T04:33:15Z,42.805,6.029,13.3015,4.60062,2470.404,2021-8-19T06:34:34Z
2021-08-19T04:36:18Z,42.805,6.029,13.3014,4.60053,2470.404,2021-8-19T06:37:37Z
2021-08-19T04:39:21Z,42.805,6.029,13.3009,4.60043,2470.404,2021-8-19T06:40:40Z
2021-08-19T04:42:24Z,42.805,6.029,13.3013,4.60052,2470.404,2021-8-19T06:43:43Z
2021-08-19T04:45:28Z,42.805,6.029,13.3012,4.60049,2470.39,2021-8-19T06:46:46Z
2021-08-19T04:48:31Z,42.805,6.029,13.3016,4.60047,2470.413,2021-8-19T06:49:49Z
2021-08-19T04:51:34Z,42.805,6.029,13.3011,4.60046,2470.39,2021-8-19T06:52:53Z
2021-08-19T04:54:37Z,42.805,6.029,13.3006,4.60044,2470.39,2021-8-19T06:55:56Z
2021-08-19T04:57:40Z,42.805,6.029,13.3007,4.60049,2470.366,2021-8-19T06:58:59Z
2021-08-19T05:00:43Z,42.805,6.029,13.3010,4.60042,2470.413,2021-8-19T07:02:02Z
2021-08-19T05:03:46Z,42.805,6.029,13.3006,4.60044,2470.404,2021-8-19T07:05:05Z
2021-08-19T05:06:49Z,42.805,6.029,13.3012,4.60037,2470.38,2021-8-19T07:08:08Z
2021-08-19T05:09:52Z,42.805,6.029,13.3019,4.60054,2470.39,2021-8-19T07:11:11Z
2021-08-19T05:12:56Z,42.805,6.029,13.3004,4.60050,2470.39,2021-8-19T07:14:14Z
2021-08-19T05:15:59Z,42.805,6.029,13.3011,4.60064,2470.39,2021-8-19T07:17:18Z
2021-08-19T05:19:02Z,42.805,6.029,13.3007,4.60023,2470.39,2021-8-19T07:20:21Z
2021-08-19T05:22:05Z,42.805,6.029,13.3015,4.60038,2470.39,2021-8-19T07:23:24Z
2021-08-19T05:25:08Z,42.805,6.029,13.3016,4.60056,2470.366,2021-8-19T07:26:27Z
2021-08-19T05:28:11Z,42.805,6.029,13.3015,4.60024,2470.39,2021-8-19T07:29:30Z
2021-08-19T05:31:14Z,42.805,6.029,13.3019,4.60026,2470.39,2021-8-19T07:32:33Z
2021-08-19T05:34:17Z,42.805,6.029,13.3006,4.60039,2470.39,2021-8-19T07:35:36Z
2021-08-19T05:37:21Z,42.805,6.029,13.3012,4.60063,2470.404,2021-8-19T07:38:39Z
2021-08-19T05:40:24Z,42.805,6.029,13.3002,4.60074,2470.357,2021-8-19T07:41:43Z
2021-08-19T05:43:27Z,42.805,6.029,13.3010,4.60031,2470.404,2021-8-19T07:44:46Z
2021-08-19T05:46:30Z,42.805,6.029,13.3028,4.60019,2470.366,2021-8-19T07:47:49Z
2021-08-19T05:49:33Z,42.805,6.029,13.3009,4.60020,2470.39,2021-8-19T07:50:52Z
2021-08-19T05:52:36Z,42.805,6.029,13.2997,4.60031,2470.39,2021-8-19T07:53:55Z
2021-08-19T05:55:39Z,42.805,6.029,13.3006,4.60064,2470.404,2021-8-19T07:56:58Z
2021-08-19T05:58:42Z,42.805,6.029,13.3008,4.60024,2470.357,2021-8-19T08:00:01Z
2021-08-19T06:01:46Z,42.805,6.029,13.3010,4.60019,2470.366,2021-8-19T08:03:04Z
2021-08-19T06:04:49Z,42.805,6.029,13.3013,4.60041,2470.39,2021-8-19T08:06:07Z
2021-08-19T06:07:52Z,42.805,6.029,13.3012,4.60052,2470.343,2021-8-19T08:09:11Z
2021-08-19T06:10:55Z,42.805,6.029,13.3013,4.60072,2470.38,2021-8-19T08:12:14Z
2021-08-19T06:13:58Z,42.805,6.029,13.3006,4.60015,2470.343,2021-8-19T08:15:17Z
2021-08-19T06:17:01Z,42.805,6.029,13.2999,4.60025,2470.38,2021-8-19T08:18:20Z
2021-08-19T06:20:04Z,42.805,6.029,13.3001,4.60046,2470.357,2021-8-19T08:21:23Z
2021-08-19T06:23:07Z,42.805,6.029,13.3015,4.60029,2470.404,2021-8-19T08:24:26Z
2021-08-19T06:26:11Z,42.805,6.029,13.3002,4.60035,2470.427,2021-8-19T08:27:29Z
2021-08-19T06:29:14Z,42.805,6.029,13.3006,4.60031,2470.38,2021-8-19T08:30:32Z
2021-08-19T06:32:17Z,42.805,6.029,13.3009,4.60029,2470.39,2021-8-19T08:33:36Z
2021-08-19T06:35:20Z,42.805,6.029,13.3023,4.60029,2470.366,2021-8-19T08:36:39Z
2021-08-19T06:38:23Z,42.805,6.029,13.3013,4.60031,2470.38,2021-8-19T08:39:42Z
2021-08-19T06:41:26Z,42.805,6.029,13.3009,4.60053,2470.39,2021-8-19T08:42:45Z
2021-08-19T06:44:29Z,42.805,6.029,13.3019,4.60035,2470.343,2021-8-19T08:45:48Z
2021-08-19T06:47:32Z,42.805,6.029,13.3024,4.60068,2470.427,2021-8-19T08:48:51Z
2021-08-19T06:50:36Z,42.805,6.029,13.3012,4.60031,2470.366,2021-8-19T08:51:54Z
2021-08-19T06:53:39Z,42.805,6.029,13.3004,4.60031,2470.343,2021-8-19T08:54:57Z
2021-08-19T06:56:42Z,42.805,6.029,13.3009,4.60029,2470.366,2021-8-19T08:58:01Z
2021-08-19T06:59:45Z,42.805,6.029,13.3008,4.60022,2470.38,2021-8-19T09:01:04Z
2021-08-19T07:02:48Z,42.805,6.029,13.3003,4.60038,2470.404,2021-8-19T09:04:07Z
2021-08-19T07:05:51Z,42.805,6.029,13.3015,4.60031,2470.343,2021-8-19T09:07:10Z
2021-08-19T07:08:54Z,42.805,6.029,13.3004,4.60028,2470.343,2021-8-19T09:10:13Z
2021-08-19T07:11:57Z,42.805,6.029,13.3012,4.60028,2470.357,2021-8-19T09:13:16Z
2021-08-19T07:15:01Z,42.805,6.029,13.3021,4.60049,2470.343,2021-8-19T09:16:19Z
2021-08-19T07:18:04Z,42.805,6.029,13.3013,4.60064,2470.343,2021-8-19T09:19:22Z
2021-08-19T07:21:07Z,42.805,6.029,13.3016,4.60021,2470.38,2021-8-19T09:22:26Z
2021-08-19T07:24:10Z,42.805,6.029,13.3015,4.60048,2470.357,2021-8-19T09:25:29Z
2021-08-19T07:27:13Z,42.805,6.029,13.3020,4.60082,2470.334,2021-8-19T09:28:32Z
2021-08-19T07:30:16Z,42.805,6.029,13.3014,4.60062,2470.357,2021-8-19T09:31:35Z
2021-08-19T07:33:19Z,42.805,6.029,13.3005,4.60039,2470.366,2021-8-19T09:34:38Z
2021-08-19T07:36:22Z,42.805,6.029,13.3009,4.60029,2470.38,2021-8-19T09:37:41Z
2021-08-19T07:39:25Z,42.805,6.029,13.2997,4.60026,2470.357,2021-8-19T09:40:44Z
2021-08-19T07:42:29Z,42.805,6.029,13.2998,4.60037,2470.343,2021-8-19T09:43:47Z
2021-08-19T07:45:32Z,42.805,6.029,13.3007,4.60046,2470.38,2021-8-19T09:46:51Z
2021-08-19T07:48:35Z,42.805,6.029,13.3018,4.60035,2470.343,2021-8-19T09:49:54Z
2021-08-19T07:51:38Z,42.805,6.029,13.3026,4.60054,2470.343,2021-8-19T09:52:57Z
2021-08-19T07:54:41Z,42.805,6.029,13.3018,4.60039,2470.32,2021-8-19T09:56:00Z
2021-08-19T07:57:44Z,42.805,6.029,13.3025,4.60035,2470.32,2021-8-19T09:59:03Z
2021-08-19T08:00:47Z,42.805,6.029,13.3015,4.60019,2470.32,2021-8-19T10:02:06Z
2021-08-19T08:03:50Z,42.805,6.029,13.3006,4.60025,2470.297,2021-8-19T10:05:09Z
2021-08-19T08:06:54Z,42.805,6.029,13.3011,4.60060,2470.273,2021-8-19T10:08:12Z
2021-08-19T08:09:57Z,42.805,6.029,13.3008,4.60036,2470.32,2021-8-19T10:11:16Z
2021-08-19T08:13:00Z,42.805,6.029,13.3004,4.60044,2470.32,2021-8-19T10:14:19Z
2021-08-19T08:16:03Z,42.805,6.029,13.3029,4.60031,2470.32,2021-8-19T10:17:22Z
2021-08-19T08:19:06Z,42.805,6.029,13.3004,4.60047,2470.334,2021-8-19T10:20:25Z
2021-08-19T08:22:09Z,42.805,6.029,13.3027,4.60050,2470.334,2021-8-19T10:23:28Z
2021-08-19T08:25:12Z,42.805,6.029,13.3009,4.60049,2470.31,2021-8-19T10:26:31Z
2021-08-19T08:28:16Z,42.805,6.029,13.3014,4.60043,2470.357,2021-8-19T10:29:34Z
2021-08-19T08:31:19Z,42.805,6.029,13.3004,4.60062,2470.297,2021-8-19T10:32:37Z
2021-08-19T08:34:22Z,42.805,6.029,13.3010,4.60056,2470.357,2021-8-19T10:35:41Z
2021-08-19T08:37:25Z,42.805,6.029,13.3009,4.60050,2470.31,2021-8-19T10:38:44Z
2021-08-19T08:40:28Z,42.805,6.029,13.3015,4.60064,2470.306,2021-8-19T10:41:47Z
2021-08-19T08:43:31Z,42.805,6.029,13.3009,4.60056,2470.297,2021-8-19T10:44:50Z
2021-08-19T08:46:34Z,42.805,6.029,13.3009,4.60049,2470.297,2021-8-19T10:47:53Z
2021-08-19T08:49:37Z,42.805,6.029,13.3015,4.60052,2470.32,2021-8-19T10:50:56Z
2021-08-19T08:52:41Z,42.805,6.029,13.3019,4.60051,2470.31,2021-8-19T10:53:59Z
2021-08-19T08:55:44Z,42.805,6.029,13.3007,4.60040,2470.31,2021-8-19T10:57:02Z
2021-08-19T08:58:47Z,42.805,6.029,13.3015,4.60056,2470.297,2021-8-19T11:00:06Z
2021-08-19T09:01:50Z,42.805,6.029,13.3006,4.60051,2470.31,2021-8-19T11:03:09Z
2021-08-19T09:04:53Z,42.805,6.029,13.3011,4.60034,2470.297,2021-8-19T11:06:12Z
2021-08-19T09:07:56Z,42.805,6.029,13.3014,4.60049,2470.334,2021-8-19T11:09:15Z
2021-08-19T09:10:59Z,42.805,6.029,13.3023,4.60047,2470.297,2021-8-19T11:12:18Z
2021-08-19T09:14:02Z,42.805,6.029,13.3009,4.60036,2470.273,2021-8-19T11:15:21Z
2021-08-19T09:17:06Z,42.805,6.029,13.3000,4.60053,2470.297,2021-8-19T11:18:24Z
2021-08-19T09:20:09Z,42.805,6.029,13.3011,4.60055,2470.334,2021-8-19T11:21:27Z
2021-08-19T09:23:12Z,42.805,6.029,13.3009,4.60046,2470.31,2021-8-19T11:24:31Z
2021-08-19T09:26:15Z,42.805,6.029,13.3010,4.60052,2470.32,2021-8-19T11:27:34Z
2021-08-19T09:29:18Z,42.805,6.029,13.3003,4.60034,2470.273,2021-8-19T11:30:37Z
2021-08-19T09:32:21Z,42.805,6.029,13.3011,4.60055,2470.287,2021-8-19T11:33:40Z
2021-08-19T09:35:24Z,42.805,6.029,13.3015,4.60038,2470.297,2021-8-19T11:36:43Z
2021-08-19T09:38:27Z,42.805,6.029,13.3009,4.60039,2470.297,2021-8-19T11:39:46Z
2021-08-19T09:41:31Z,42.805,6.029,13.3006,4.60057,2470.297,2021-8-19T11:42:49Z
2021-08-19T09:44:34Z,42.805,6.029,13.3014,4.60056,2470.273,2021-8-19T11:45:53Z
2021-08-19T09:47:37Z,42.805,6.029,13.3006,4.60059,2470.264,2021-8-19T11:48:56Z
2021-08-19T09:50:40Z,42.805,6.029,13.3010,4.60043,2470.31,2021-8-19T11:51:59Z
2021-08-19T09:53:43Z,42.805,6.029,13.3019,4.60041,2470.273,2021-8-19T11:55:02Z
2021-08-19T09:56:46Z,42.805,6.029,13.2996,4.60046,2470.273,2021-8-19T11:58:05Z
2021-08-19T09:59:49Z,42.805,6.029,13.3000,4.60044,2470.273,2021-8-19T12:01:08Z
2021-08-19T10:02:52Z,42.805,6.029,13.3003,4.60044,2470.297,2021-8-19T12:04:11Z
2021-08-19T10:05:56Z,42.805,6.029,13.3006,4.60046,2470.297,2021-8-19T12:07:14Z
2021-08-19T10:08:59Z,42.805,6.029,13.3004,4.60042,2470.25,2021-8-19T12:10:17Z
2021-08-19T10:12:02Z,42.805,6.029,13.3009,4.60045,2470.273,2021-8-19T12:13:21Z
2021-08-19T10:15:05Z,42.805,6.029,13.3013,4.60043,2470.25,2021-8-19T12:16:24Z
2021-08-19T10:18:08Z,42.805,6.029,13.3009,4.60051,2470.264,2021-8-19T12:19:27Z
2021-08-19T10:21:11Z,42.805,6.029,13.3000,4.60044,2470.264,2021-8-19T12:22:30Z
2021-08-19T10:24:14Z,42.805,6.029,13.2999,4.60049,2470.25,2021-8-19T12:25:33Z
2021-08-19T10:27:18Z,42.805,6.029,13.3016,4.60032,2470.287,2021-8-19T12:28:36Z
2021-08-19T10:30:21Z,42.805,6.029,13.3011,4.60044,2470.264,2021-8-19T12:31:39Z
2021-08-19T10:33:24Z,42.805,6.029,13.3004,4.60033,2470.273,2021-8-19T12:34:43Z
2021-08-19T10:36:27Z,42.805,6.029,13.3023,4.60047,2470.287,2021-8-19T12:37:46Z
2021-08-19T10:39:30Z,42.805,6.029,13.3006,4.60049,2470.25,2021-8-19T12:40:49Z
2021-08-19T10:42:33Z,42.805,6.029,13.2999,4.60022,2470.31,2021-8-19T12:43:52Z
2021-08-19T10:45:36Z,42.805,6.029,13.3016,4.60038,2470.25,2021-8-19T12:46:55Z
2021-08-19T10:48:39Z,42.805,6.029,13.3000,4.60044,2470.24,2021-8-19T12:49:58Z
2021-08-19T10:51:43Z,42.805,6.029,13.3005,4.60051,2470.273,2021-8-19T12:53:01Z
2021-08-19T10:54:46Z,42.805,6.029,13.3000,4.60030,2470.25,2021-8-19T12:56:04Z
2021-08-19T10:57:49Z,42.805,6.029,13.3005,4.60044,2470.273,2021-8-19T12:59:08Z
2021-08-19T11:00:52Z,42.805,6.029,13.2996,4.60033,2470.25,2021-8-19T13:02:11Z
2021-08-19T11:03:55Z,42.805,6.029,13.3015,4.60029,2470.25,2021-8-19T13:05:14Z
2021-08-19T11:06:58Z,42.805,6.029,13.3008,4.60046,2470.25,2021-8-19T13:08:17Z
2021-08-19T11:10:01Z,42.805,6.029,13.3016,4.60040,2470.273,2021-8-19T13:11:20Z
2021-08-19T11:13:04Z,42.805,6.029,13.3011,4.60051,2470.25,2021-8-19T13:14:23Z
2021-08-19T11:16:08Z,42.805,6.029,13.3004,4.60041,2470.264,2021-8-19T13:17:26Z
2021-08-19T11:19:11Z,42.805,6.029,13.3000,4.60028,2470.24,2021-8-19T13:20:29Z
2021-08-19T11:22:14Z,42.805,6.029,13.3000,4.60037,2470.273,2021-8-19T13:23:33Z
2021-08-19T11:25:17Z,42.805,6.029,13.2999,4.60023,2470.273,2021-8-19T13:26:36Z
2021-08-19T11:28:20Z,42.805,6.029,13.3001,4.60031,2470.24,2021-8-19T13:29:39Z
2021-08-19T11:31:23Z,42.805,6.029,13.2998,4.60050,2470.287,2021-8-19T13:32:42Z
2021-08-19T11:34:26Z,42.805,6.029,13.3006,4.60049,2470.273,2021-8-19T13:35:45Z
2021-08-19T11:37:29Z,42.805,6.029,13.2995,4.60037,2470.24,2021-8-19T13:38:48Z
2021-08-19T11:40:33Z,42.805,6.029,13.3000,4.60032,2470.273,2021-8-19T13:41:51Z
2021-08-19T11:43:36Z,42.805,6.029,13.3013,4.60025,2470.264,2021-8-19T13:44:55Z
2021-08-19T11:46:39Z,42.805,6.029,13.3009,4.60040,2470.287,2021-8-19T13:47:58Z
2021-08-19T11:49:42Z,42.805,6.029,13.3002,4.60020,2470.25,2021-8-19T13:51:01Z
2021-08-19T11:52:45Z,42.805,6.029,13.2996,4.60015,2470.273,2021-8-19T13:54:04Z
2021-08-19T11:55:48Z,42.805,6.029,13.2996,4.60031,2470.297,2021-8-19T13:57:07Z
2021-08-19T11:58:51Z,42.805,6.029,13.3004,4.60043,2470.287,2021-8-19T14:00:10Z
2021-08-19T12:01:54Z,42.805,6.029,13.3007,4.60046,2470.334,2021-8-19T14:03:13Z
2021-08-19T12:04:58Z,42.805,6.029,13.3003,4.60044,2470.264,2021-8-19T14:06:16Z
2021-08-19T12:08:01Z,42.805,6.029,13.3012,4.60032,2470.273,2021-8-19T14:09:20Z
2021-08-19T12:11:04Z,42.805,6.029,13.3006,4.60048,2470.273,2021-8-19T14:12:23Z
2021-08-19T12:14:07Z,42.805,6.029,13.3007,4.60036,2470.287,2021-8-19T14:15:26Z
2021-08-19T12:17:10Z,42.805,6.029,13.3007,4.60044,2470.297,2021-8-19T14:18:29Z
2021-08-19T12:20:13Z,42.805,6.029,13.3001,4.60041,2470.25,2021-8-19T14:21:32Z
2021-08-19T12:23:16Z,42.805,6.029,13.2997,4.60032,2470.287,2021-8-19T14:24:35Z
2021-08-19T12:26:20Z,42.805,6.029,13.3015,4.60049,2470.287,2021-8-19T14:27:38Z
2021-08-19T12:29:23Z,42.805,6.029,13.3002,4.60042,2470.32,2021-8-19T14:30:41Z
2021-08-19T12:32:26Z,42.805,6.029,13.3009,4.60046,2470.287,2021-8-19T14:33:45Z
2021-08-19T12:35:29Z,42.805,6.029,13.2998,4.60020,2470.287,2021-8-19T14:36:48Z
2021-08-19T12:38:32Z,42.805,6.029,13.3002,4.60040,2470.297,2021-8-19T14:39:51Z
2021-08-19T12:41:35Z,42.805,6.029,13.3007,4.60043,2470.273,2021-8-19T14:42:54Z
2021-08-19T12:44:38Z,42.805,6.029,13.3002,4.60026,2470.273,2021-8-19T14:45:57Z
2021-08-19T12:47:41Z,42.805,6.029,13.3006,4.60039,2470.297,2021-8-19T14:49:00Z
2021-08-19T12:50:45Z,42.805,6.029,13.3004,4.60036,2470.31,2021-8-19T14:52:03Z
2021-08-19T12:53:48Z,42.805,6.029,13.3012,4.60042,2470.297,2021-8-19T14:55:06Z
2021-08-19T12:56:51Z,42.805,6.029,13.3007,4.60043,2470.297,2021-8-19T14:58:10Z
2021-08-19T12:59:54Z,42.805,6.029,13.3007,4.60040,2470.31,2021-8-19T15:01:13Z
2021-08-19T13:02:57Z,42.805,6.029,13.3001,4.60032,2470.297,2021-8-19T15:04:16Z
2021-08-19T13:06:00Z,42.805,6.029,13.2998,4.60014,2470.297,2021-8-19T15:07:19Z
2021-08-19T13:09:03Z,42.805,6.029,13.2996,4.60024,2470.32,2021-8-19T15:10:22Z
2021-08-19T13:12:06Z,42.805,6.029,13.3008,4.60034,2470.334,2021-8-19T15:13:25Z
2021-08-19T13:15:10Z,42.805,6.029,13.3009,4.60033,2470.297,2021-8-19T15:16:28Z
2021-08-19T13:18:13Z,42.805,6.029,13.3014,4.60044,2470.297,2021-8-19T15:19:31Z
2021-08-19T13:21:16Z,42.805,6.029,13.3009,4.60033,2470.334,2021-8-19T15:22:35Z
2021-08-19T13:24:19Z,42.805,6.029,13.3004,4.60036,2470.343,2021-8-19T15:25:38Z
2021-08-19T13:27:22Z,42.805,6.029,13.3000,4.60018,2470.334,2021-8-19T15:28:41Z
2021-08-19T13:30:25Z,42.805,6.029,13.3000,4.60020,2470.32,2021-8-19T15:31:44Z
2021-08-19T13:33:28Z,42.805,6.029,13.3004,4.60034,2470.334,2021-8-19T15:34:47Z
2021-08-19T13:36:31Z,42.805,6.029,13.3007,4.60042,2470.334,2021-8-19T15:37:50Z
2021-08-19T13:39:35Z,42.805,6.029,13.2998,4.60044,2470.343,2021-8-19T15:40:53Z
2021-08-19T13:42:38Z,42.805,6.029,13.3009,4.60044,2470.343,2021-8-19T15:43:57Z
2021-08-19T13:45:41Z,42.805,6.029,13.3004,4.60026,2470.32,2021-8-19T15:47:00Z
2021-08-19T13:48:44Z,42.805,6.029,13.3007,4.60036,2470.343,2021-8-19T15:50:03Z
2021-08-19T13:51:47Z,42.805,6.029,13.3011,4.60038,2470.334,2021-8-19T15:53:06Z
2021-08-19T13:54:50Z,42.805,6.029,13.2996,4.60041,2470.38,2021-8-19T15:56:09Z
2021-08-19T13:57:53Z,42.805,6.029,13.3009,4.60036,2470.357,2021-8-19T15:59:12Z
2021-08-19T14:00:56Z,42.805,6.029,13.3010,4.60047,2470.334,2021-8-19T16:02:15Z
2021-08-19T14:04:00Z,42.805,6.029,13.3006,4.60039,2470.38,2021-8-19T16:05:18Z
2021-08-19T14:07:03Z,42.805,6.029,13.3011,4.60041,2470.343,2021-8-19T16:08:22Z
2021-08-19T14:10:06Z,42.805,6.029,13.3004,4.60042,2470.39,2021-8-19T16:11:25Z
2021-08-19T14:13:09Z,42.805,6.029,13.3006,4.60039,2470.404,2021-8-19T16:14:28Z
2021-08-19T14:16:12Z,42.805,6.029,13.3002,4.60034,2470.39,2021-8-19T16:17:31Z
2021-08-19T14:19:15Z,42.805,6.029,13.2995,4.60040,2470.366,2021-8-19T16:20:34Z
2021-08-19T14:22:18Z,42.805,6.029,13.3003,4.60021,2470.366,2021-8-19T16:23:37Z
2021-08-19T14:25:21Z,42.805,6.029,13.3000,4.60032,2470.38,2021-8-19T16:26:40Z
2021-08-19T14:28:25Z,42.805,6.029,13.3008,4.60031,2470.366,2021-8-19T16:29:43Z
2021-08-19T14:31:28Z,42.805,6.029,13.2998,4.60029,2470.357,2021-8-19T16:32:47Z
2021-08-19T14:34:31Z,42.805,6.029,13.2999,4.60018,2470.404,2021-8-19T16:35:50Z
2021-08-19T14:37:34Z,42.805,6.029,13.3002,4.60040,2470.404,2021-8-19T16:38:53Z
2021-08-19T14:40:37Z,42.805,6.029,13.3008,4.60039,2470.366,2021-8-19T16:41:56Z
2021-08-19T14:43:40Z,42.805,6.029,13.3000,4.60029,2470.366,2021-8-19T16:44:59Z
2021-08-19T14:46:43Z,42.805,6.029,13.3000,4.60029,2470.357,2021-8-19T16:48:02Z
2021-08-19T14:49:47Z,42.805,6.029,13.2993,4.60015,2470.357,2021-8-19T16:51:05Z
2021-08-19T14:52:50Z,42.805,6.029,13.3003,4.60025,2470.39,2021-8-19T16:54:08Z
2021-08-19T14:55:53Z,42.805,6.029,13.3004,4.60045,2470.404,2021-8-19T16:57:12Z
2021-08-19T14:58:56Z,42.805,6.029,13.3006,4.60039,2470.39,2021-8-19T17:00:15Z
2021-08-19T15:01:59Z,42.805,6.029,13.3009,4.60028,2470.404,2021-8-19T17:03:18Z
2021-08-19T15:05:02Z,42.805,6.029,13.2998,4.60039,2470.404,2021-8-19T17:06:21Z
2021-08-19T15:08:05Z,42.805,6.029,13.3006,4.60032,2470.39,2021-8-19T17:09:24Z
2021-08-19T15:11:08Z,42.805,6.029,13.3009,4.60042,2470.413,2021-8-19T17:12:27Z
2021-08-19T15:14:12Z,42.805,6.029,13.3011,4.60038,2470.366,2021-8-19T17:15:30Z